User: anonymous
Location: Unspecified
(0.0000°N, 0.0000°E)
Time: 01:13:40
(UTC+02:00)
Language:

NOSS 3-3 (A) - Orbit

View from above orbital plane
View from above orbital plane
View from above satellite
View from above satellite

Ground track
Ground track

The orbit data is extracted from the following two-line orbital elements,

1 28537U 05004A   14236.01843738 0.00000000  00000-0  00000-0 0    07
2 28537  63.4307 287.6218 0174000 359.1883   0.8117 13.40649668    07
Epoch (UTC): 24 August 2014 00:26:32
Eccentricity: 0.0174000
inclination: 63.4307°
perigee height: 976 km
apogee height: 1237 km
right ascension of ascending node: 287.6218°
argument of perigee: 359.1883°
revolutions per day: 13.40649668
mean anomaly at epoch: 0.8117°
orbit number at epoch: 0

The dashed part of the orbit path shows where the satellite is in the earth's shadow,  

DLR